Starlink 1596

operational
NORAD ID: 46141 Int'l Des: 2020-057 Owner: SPXS Country: US Constellation: starlink
LEOCIRCULAR

Starlink 1596について

説明を読み込み中...

リアルタイム位置

3D地球を読み込み中...

次回通過

高度履歴

Altitude vs Time

uPlot chart will show altitude changes over time

軌道要素

1 46141U 20057AA 26062.72835423 .00057710 00000-0 12634-2 0 9998
2 46141 53.0428 259.1480 0005230 139.5986 220.5408 15.43581796306357
Epoch: Mar 3, 2026 • Age: 45 hours

現在のステータス

高度 455.7 km
速度 7.64 km/s
衛星直下点 -51.66°S, 63.26°E
打ち上げ日 Aug 18, 2020
運用期間 5.5 years
タイプ internet

技術仕様

分類 Payload
質量 260.00 kg
乾燥質量 248.00 kg
総質量 260.00 kg
長さ 0.20 m
直径 2.80 m
スパン 9.00 m
形状 Box + pan
製造者 SPXS
バスタイプ Starlink
フェーズステータス In Orbit
所有者/国 SPXS/US

大規模コンステレーション

Loading constellations...